RYR2AL LOWW-LEIB

Flight info

Callsign RYR2AL
Flight time 2h 10m
Altitude 32000
Route OSPEN DCT ABRUK DCT SETAL DCT DETSA DCT ADOSA DCT GOLAS DCT PIDAD DCT TALEP DCT RARQU DCT BALEN DCT SORAS N850 POS
Aircraft B38M/M-SDE1FGHILORVWXY/HB1

Departure

Time 2026-04-26 08:26
Airport Vienna International Airport (LOWW)

Arrival

Time 2026-04-26 10:37
Airport Ibiza Airport (LEIB)
Time Latitude Longitude Altitude Speed Heading
2026-04-26 07:55 48.12047 16.55454 612 ft 0 kts 296°
2026-04-26 08:20 48.12047 16.55453 612 ft 0 kts 291°
2026-04-26 08:20 48.12053 16.55434 612 ft 5 kts 293°
2026-04-26 08:21 48.12066 16.55378 616 ft 4 kts 250°
2026-04-26 08:21 48.12041 16.55360 612 ft 5 kts 200°
2026-04-26 08:21 48.12002 16.55338 611 ft 8 kts 200°
2026-04-26 08:21 48.11949 16.55286 622 ft 10 kts 240°
2026-04-26 08:22 48.11908 16.55207 613 ft 10 kts 177°
2026-04-26 08:22 48.11859 16.55286 618 ft 12 kts 117°
2026-04-26 08:22 48.11819 16.55406 614 ft 16 kts 116°
2026-04-26 08:22 48.11755 16.55604 618 ft 24 kts 115°
2026-04-26 08:23 48.11684 16.55832 617 ft 25 kts 115°
2026-04-26 08:23 48.11604 16.56070 619 ft 26 kts 117°
2026-04-26 08:23 48.11525 16.56306 622 ft 23 kts 116°
2026-04-26 08:23 48.11463 16.56497 615 ft 13 kts 115°
2026-04-26 08:24 48.11420 16.56630 619 ft 15 kts 116°
2026-04-26 08:24 48.11369 16.56783 622 ft 18 kts 116°
2026-04-26 08:24 48.11309 16.56967 621 ft 21 kts 116°
2026-04-26 08:24 48.11267 16.57100 612 ft 22 kts 115°
2026-04-26 08:25 48.11165 16.57225 612 ft 21 kts 200°
2026-04-26 08:25 48.11065 16.57129 621 ft 14 kts 251°
2026-04-26 08:25 48.11093 16.56985 619 ft 16 kts 296°
2026-04-26 08:25 48.11215 16.56612 617 ft 78 kts 296°
2026-04-26 08:26 48.11564 16.55539 615 ft 148 kts 296°
2026-04-26 08:26 48.12050 16.53926 868 ft 187 kts 297°
2026-04-26 08:26 48.12309 16.51994 1793 ft 194 kts 272°
2026-04-26 08:26 48.11979 16.49910 2713 ft 219 kts 254°
2026-04-26 08:27 48.11094 16.47898 3443 ft 248 kts 231°
2026-04-26 08:27 48.09579 16.46307 3997 ft 283 kts 211°
2026-04-26 08:27 48.07766 16.45130 5086 ft 281 kts 208°
2026-04-26 08:27 48.05938 16.43994 6086 ft 286 kts 213°
2026-04-26 08:28 48.04313 16.42449 7247 ft 270 kts 229°
2026-04-26 08:28 48.03051 16.40412 8127 ft 266 kts 246°
2026-04-26 08:28 48.02293 16.37943 9021 ft 260 kts 258°
2026-04-26 08:28 48.01630 16.35388 9910 ft 267 kts 257°
2026-04-26 08:29 48.00931 16.32768 10631 ft 278 kts 256°
2026-04-26 08:29 48.00189 16.30025 11245 ft 289 kts 255°
2026-04-26 08:29 47.99434 16.27267 12057 ft 293 kts 255°
2026-04-26 08:29 47.98652 16.24418 12809 ft 300 kts 255°
2026-04-26 08:30 47.97851 16.21512 13577 ft 305 kts 255°
2026-04-26 08:30 47.97037 16.18558 14285 ft 310 kts 255°
2026-04-26 08:30 47.96210 16.15563 14970 ft 314 kts 254°
2026-04-26 08:30 47.95371 16.12529 15659 ft 318 kts 253°
2026-04-26 08:31 47.94524 16.09466 16327 ft 321 kts 253°
2026-04-26 08:31 47.93664 16.06363 16958 ft 326 kts 252°
2026-04-26 08:31 47.92793 16.03218 17601 ft 330 kts 252°
2026-04-26 08:31 47.91909 16.00041 18252 ft 334 kts 252°
2026-04-26 08:32 47.91019 15.96844 18912 ft 334 kts 252°
2026-04-26 08:32 47.90119 15.93612 19378 ft 341 kts 252°
2026-04-26 08:32 47.89210 15.90353 19986 ft 341 kts 252°
2026-04-26 08:32 47.88294 15.87074 20470 ft 345 kts 252°
2026-04-26 08:33 47.87367 15.83758 20986 ft 348 kts 252°
2026-04-26 08:33 47.86433 15.80424 21523 ft 351 kts 252°
2026-04-26 08:33 47.85488 15.77062 22066 ft 352 kts 254°
2026-04-26 08:33 47.84548 15.73697 22631 ft 353 kts 253°
2026-04-26 08:34 47.83597 15.70324 23245 ft 353 kts 253°
2026-04-26 08:34 47.82642 15.66929 23620 ft 359 kts 252°
2026-04-26 08:34 47.81671 15.63484 23998 ft 363 kts 252°
2026-04-26 08:34 47.80694 15.60019 24477 ft 362 kts 251°
2026-04-26 08:35 47.79716 15.56556 24918 ft 365 kts 252°
2026-04-26 08:35 47.78720 15.53061 25299 ft 368 kts 253°
2026-04-26 08:35 47.77725 15.49543 25657 ft 371 kts 250°
2026-04-26 08:35 47.76713 15.45986 25988 ft 374 kts 249°
2026-04-26 08:36 47.75698 15.42428 26474 ft 374 kts 253°
2026-04-26 08:36 47.74697 15.38905 26840 ft 377 kts 253°
2026-04-26 08:36 47.73668 15.35300 27145 ft 381 kts 251°
2026-04-26 08:36 47.72629 15.31669 27470 ft 383 kts 250°
2026-04-26 08:37 47.71589 15.28021 27850 ft 385 kts 251°
2026-04-26 08:37 47.70535 15.24349 28129 ft 389 kts 250°
2026-04-26 08:37 47.69471 15.20651 28509 ft 390 kts 250°
2026-04-26 08:37 47.68401 15.16931 28826 ft 393 kts 250°
2026-04-26 08:38 47.67327 15.13191 29192 ft 395 kts 250°
2026-04-26 08:38 47.66242 15.09435 29523 ft 397 kts 251°
2026-04-26 08:38 47.65150 15.05656 29829 ft 400 kts 250°
2026-04-26 08:38 47.64047 15.01845 30065 ft 404 kts 251°
2026-04-26 08:39 47.62940 14.98020 30432 ft 404 kts 250°
2026-04-26 08:39 47.61828 14.94183 30666 ft 406 kts 249°
2026-04-26 08:39 47.60707 14.90332 30936 ft 408 kts 251°
2026-04-26 08:39 47.59581 14.86472 31216 ft 409 kts 251°
2026-04-26 08:40 47.58456 14.82605 31527 ft 409 kts 249°
2026-04-26 08:40 47.57329 14.78726 31765 ft 411 kts 249°
2026-04-26 08:40 47.56186 14.74836 31995 ft 413 kts 249°
2026-04-26 08:40 47.55039 14.70935 32262 ft 414 kts 249°
2026-04-26 08:41 47.53891 14.67024 32539 ft 415 kts 249°
2026-04-26 08:41 47.52738 14.63104 32778 ft 416 kts 249°
2026-04-26 08:41 47.51581 14.59172 33026 ft 418 kts 249°
2026-04-26 08:41 47.50418 14.55230 33252 ft 419 kts 250°
2026-04-26 08:42 47.49252 14.51280 33514 ft 419 kts 249°
2026-04-26 08:42 47.48082 14.47323 33761 ft 421 kts 250°
2026-04-26 08:42 47.46923 14.43412 34009 ft 421 kts 250°
2026-04-26 08:42 47.45745 14.39444 34233 ft 422 kts 250°
2026-04-26 08:43 47.44563 14.35463 34410 ft 424 kts 249°
2026-04-26 08:43 47.43374 14.31463 34598 ft 425 kts 249°
2026-04-26 08:43 47.42182 14.27469 34834 ft 426 kts 249°
2026-04-26 08:43 47.40983 14.23463 34989 ft 427 kts 249°
2026-04-26 08:44 47.39782 14.19446 35148 ft 428 kts 249°
2026-04-26 08:44 47.38575 14.15420 35337 ft 429 kts 249°
2026-04-26 08:44 47.37364 14.11386 35511 ft 431 kts 249°
2026-04-26 08:44 47.36147 14.07340 35707 ft 432 kts 249°
2026-04-26 08:45 47.34930 14.03292 35899 ft 432 kts 249°
2026-04-26 08:45 47.33715 13.99265 36186 ft 430 kts 248°
2026-04-26 08:45 47.31275 13.91195 36204 ft 433 kts 248°
2026-04-26 08:46 47.28800 13.83030 36191 ft 438 kts 249°
2026-04-26 08:46 47.26298 13.74808 36195 ft 441 kts 248°
2026-04-26 08:47 47.23776 13.66558 36185 ft 443 kts 248°
2026-04-26 08:47 47.21249 13.58313 36204 ft 442 kts 248°
2026-04-26 08:48 47.18725 13.50091 36191 ft 438 kts 247°
2026-04-26 08:48 47.16221 13.41972 36182 ft 436 kts 248°
2026-04-26 08:49 47.13704 13.33842 36184 ft 436 kts 248°
2026-04-26 08:49 47.11194 13.25739 36187 ft 437 kts 248°
2026-04-26 08:50 47.08647 13.17572 36180 ft 441 kts 248°
2026-04-26 08:50 47.06091 13.09392 36177 ft 441 kts 248°
2026-04-26 08:51 47.02268 12.97200 36179 ft 441 kts 247°
2026-04-26 08:52 46.99698 12.89041 36185 ft 441 kts 247°
2026-04-26 08:52 46.97125 12.80894 36172 ft 440 kts 247°
2026-04-26 08:53 46.94546 12.72758 36179 ft 441 kts 247°
2026-04-26 08:53 46.91959 12.64634 36192 ft 441 kts 245°
2026-04-26 08:53 46.90369 12.60797 36162 ft 443 kts 233°
2026-04-26 08:54 46.88221 12.57569 36190 ft 445 kts 221°
2026-04-26 08:54 46.83476 12.51705 36198 ft 447 kts 223°
2026-04-26 08:55 46.78795 12.45718 36217 ft 447 kts 224°
2026-04-26 08:55 46.74134 12.39727 36232 ft 447 kts 224°
2026-04-26 08:56 46.69468 12.33740 36231 ft 447 kts 224°
2026-04-26 08:56 46.64799 12.27764 36238 ft 447 kts 224°
2026-04-26 08:57 46.60129 12.21800 36220 ft 447 kts 224°
2026-04-26 08:57 46.55462 12.15854 36156 ft 445 kts 223°
2026-04-26 08:58 46.50806 12.09936 36150 ft 444 kts 223°
2026-04-26 08:58 46.46150 12.04032 36155 ft 444 kts 223°
2026-04-26 08:59 46.41492 11.98141 36148 ft 444 kts 223°
2026-04-26 08:59 46.36855 11.92288 36152 ft 447 kts 223°
2026-04-26 09:00 46.32150 11.86362 36126 ft 449 kts 223°
2026-04-26 09:00 46.27418 11.80418 36120 ft 450 kts 223°
2026-04-26 09:01 46.22692 11.74497 36145 ft 450 kts 223°
2026-04-26 09:01 46.17958 11.68579 36151 ft 450 kts 223°
2026-04-26 09:02 46.13223 11.62671 36152 ft 451 kts 223°
2026-04-26 09:02 46.08483 11.56777 36161 ft 450 kts 223°
2026-04-26 09:03 46.03741 11.50891 36148 ft 450 kts 223°
2026-04-26 09:03 45.98997 11.45016 36166 ft 450 kts 223°
2026-04-26 09:04 45.94249 11.39149 36167 ft 450 kts 223°
2026-04-26 09:04 45.89496 11.33291 36158 ft 450 kts 223°
2026-04-26 09:05 45.84737 11.27439 36140 ft 450 kts 223°
2026-04-26 09:05 45.79980 11.21604 36140 ft 450 kts 222°
2026-04-26 09:06 45.75146 11.15905 36139 ft 450 kts 220°
2026-04-26 09:06 45.70200 11.10387 36121 ft 451 kts 220°
2026-04-26 09:07 45.65300 11.04895 36116 ft 451 kts 220°
2026-04-26 09:07 45.60360 10.99369 36097 ft 451 kts 220°
2026-04-26 09:08 45.55422 10.93855 36096 ft 450 kts 220°
2026-04-26 09:08 45.50495 10.88368 36103 ft 449 kts 220°
2026-04-26 09:09 45.45562 10.82887 36087 ft 449 kts 220°
2026-04-26 09:09 45.40633 10.77421 36101 ft 449 kts 219°
2026-04-26 09:10 45.35699 10.71964 36108 ft 449 kts 219°
2026-04-26 09:10 45.30763 10.66516 36095 ft 449 kts 219°
2026-04-26 09:11 45.25823 10.61077 36097 ft 449 kts 219°
2026-04-26 09:11 45.20883 10.55649 36107 ft 449 kts 219°
2026-04-26 09:12 45.15936 10.50227 36106 ft 449 kts 219°
2026-04-26 09:12 45.10989 10.44816 36125 ft 449 kts 219°
2026-04-26 09:13 45.06040 10.39414 36139 ft 449 kts 219°
2026-04-26 09:13 45.01089 10.34024 36140 ft 449 kts 219°
2026-04-26 09:14 44.96135 10.28642 36135 ft 449 kts 219°
2026-04-26 09:14 44.92015 10.24175 36125 ft 449 kts 219°
2026-04-26 09:15 44.87057 10.18811 36130 ft 449 kts 219°
2026-04-26 09:15 44.82095 10.13455 36132 ft 449 kts 219°
2026-04-26 09:16 44.77132 10.08109 36132 ft 449 kts 219°
2026-04-26 09:16 44.72166 10.02772 36124 ft 449 kts 219°
2026-04-26 09:17 44.67203 9.97449 36130 ft 449 kts 219°
2026-04-26 09:17 44.62238 9.92137 36127 ft 449 kts 219°
2026-04-26 09:18 44.57270 9.86833 36129 ft 448 kts 219°
2026-04-26 09:18 44.52303 9.81541 36123 ft 449 kts 219°
2026-04-26 09:19 44.47324 9.76249 36128 ft 449 kts 219°
2026-04-26 09:19 44.42378 9.71003 36137 ft 449 kts 219°
2026-04-26 09:20 44.37396 9.65730 36131 ft 449 kts 219°
2026-04-26 09:20 44.32411 9.60466 36142 ft 449 kts 219°
2026-04-26 09:21 44.27424 9.55212 36154 ft 449 kts 219°
2026-04-26 09:21 44.22434 9.49965 36156 ft 449 kts 219°
2026-04-26 09:22 44.17443 9.44729 36163 ft 450 kts 219°
2026-04-26 09:22 44.12435 9.39486 36168 ft 451 kts 219°
2026-04-26 09:23 44.07419 9.34246 36170 ft 451 kts 218°
2026-04-26 09:23 44.02402 9.29017 36165 ft 451 kts 218°
2026-04-26 09:24 43.97379 9.23793 36176 ft 451 kts 218°
2026-04-26 09:24 43.92388 9.18614 36176 ft 451 kts 218°
2026-04-26 09:25 43.87358 9.13404 36176 ft 451 kts 218°
2026-04-26 09:25 43.82328 9.08205 36171 ft 452 kts 218°
2026-04-26 09:26 43.77280 9.02999 36176 ft 453 kts 218°
2026-04-26 09:26 43.72224 8.97798 36175 ft 453 kts 218°
2026-04-26 09:27 43.67168 8.92609 36161 ft 453 kts 218°
2026-04-26 09:27 43.62107 8.87424 36171 ft 453 kts 218°
2026-04-26 09:28 43.57043 8.82247 36172 ft 453 kts 218°
2026-04-26 09:28 43.51977 8.77080 36171 ft 453 kts 218°
2026-04-26 09:29 43.46913 8.71916 36167 ft 453 kts 219°
2026-04-26 09:29 43.42278 8.66073 36162 ft 453 kts 224°
2026-04-26 09:30 43.37603 8.60264 36181 ft 453 kts 223°
2026-04-26 09:30 43.32944 8.54520 36174 ft 453 kts 223°
2026-04-26 09:31 43.28251 8.48748 36168 ft 453 kts 223°
2026-04-26 09:31 43.23547 8.42975 36172 ft 453 kts 223°
2026-04-26 09:32 43.18843 8.37214 36173 ft 453 kts 223°
2026-04-26 09:32 43.14136 8.31461 36169 ft 454 kts 223°
2026-04-26 09:33 43.09420 8.25711 36174 ft 454 kts 223°
2026-04-26 09:33 43.04696 8.19963 36172 ft 454 kts 223°
2026-04-26 09:34 42.99971 8.14227 36175 ft 454 kts 223°
2026-04-26 09:34 42.95246 8.08503 36170 ft 454 kts 223°
2026-04-26 09:35 42.90517 8.02786 36172 ft 454 kts 223°
2026-04-26 09:35 42.85785 7.97077 36170 ft 454 kts 223°
2026-04-26 09:36 42.81051 7.91377 36171 ft 455 kts 223°
2026-04-26 09:36 42.76310 7.85683 36168 ft 454 kts 223°
2026-04-26 09:37 42.71568 7.79999 36169 ft 454 kts 223°
2026-04-26 09:37 42.66822 7.74323 36168 ft 454 kts 223°
2026-04-26 09:38 42.62075 7.68656 36168 ft 454 kts 223°
2026-04-26 09:38 42.57326 7.63000 36170 ft 454 kts 223°
2026-04-26 09:39 42.52575 7.57351 36159 ft 454 kts 223°
2026-04-26 09:39 42.47818 7.51710 36165 ft 454 kts 223°
2026-04-26 09:40 42.43090 7.46114 36163 ft 454 kts 223°
2026-04-26 09:40 42.38328 7.40489 36165 ft 455 kts 223°
2026-04-26 09:41 42.33557 7.34866 36171 ft 455 kts 223°
2026-04-26 09:41 42.28800 7.29218 36167 ft 455 kts 224°
2026-04-26 09:42 42.24131 7.23450 36169 ft 455 kts 224°
2026-04-26 09:42 42.19447 7.17707 36168 ft 455 kts 224°
2026-04-26 09:43 42.14762 7.11975 36164 ft 455 kts 224°
2026-04-26 09:43 42.10406 7.05861 36155 ft 451 kts 238°
2026-04-26 09:44 42.06902 6.98844 36135 ft 452 kts 236°
2026-04-26 09:44 42.03305 6.91899 36159 ft 452 kts 236°
2026-04-26 09:45 41.99699 6.84970 36170 ft 452 kts 236°
2026-04-26 09:45 41.96088 6.78046 36160 ft 453 kts 236°
2026-04-26 09:46 41.92472 6.71124 36158 ft 452 kts 236°
2026-04-26 09:46 41.88849 6.64217 36160 ft 453 kts 236°
2026-04-26 09:47 41.85226 6.57318 36159 ft 453 kts 236°
2026-04-26 09:47 41.81597 6.50424 36155 ft 452 kts 236°
2026-04-26 09:48 41.77965 6.43533 36155 ft 452 kts 236°
2026-04-26 09:48 41.74333 6.36664 36160 ft 453 kts 235°
2026-04-26 09:49 41.70696 6.29803 36155 ft 452 kts 236°
2026-04-26 09:49 41.67053 6.22939 36152 ft 452 kts 235°
2026-04-26 09:50 41.63426 6.16132 36155 ft 453 kts 236°
2026-04-26 09:50 41.59779 6.09291 36155 ft 452 kts 235°
2026-04-26 09:51 41.56123 6.02460 36149 ft 451 kts 236°
2026-04-26 09:51 41.52467 5.95647 36155 ft 452 kts 235°
2026-04-26 09:52 41.48813 5.88837 36156 ft 452 kts 236°
2026-04-26 09:52 41.43317 5.78637 36160 ft 452 kts 236°
2026-04-26 09:53 41.39650 5.71842 36157 ft 451 kts 235°
2026-04-26 09:53 41.35979 5.65064 36156 ft 450 kts 235°
2026-04-26 09:54 41.32313 5.58306 36164 ft 451 kts 235°
2026-04-26 09:54 41.28490 5.51711 36177 ft 450 kts 230°
2026-04-26 09:55 41.24443 5.45347 36164 ft 450 kts 231°
2026-04-26 09:55 41.20431 5.38953 36160 ft 451 kts 231°
2026-04-26 09:56 41.16418 5.32562 36164 ft 451 kts 230°
2026-04-26 09:56 41.12397 5.26170 36161 ft 450 kts 231°
2026-04-26 09:57 41.08379 5.19794 36171 ft 451 kts 230°
2026-04-26 09:57 41.04360 5.13431 36170 ft 451 kts 230°
2026-04-26 09:58 41.00333 5.07066 36167 ft 450 kts 230°
2026-04-26 09:58 40.96299 5.00706 36171 ft 451 kts 230°
2026-04-26 09:59 40.92945 4.95429 36169 ft 451 kts 230°
2026-04-26 09:59 40.88224 4.88009 36168 ft 451 kts 230°
2026-04-26 10:00 40.84175 4.81670 36173 ft 451 kts 230°
2026-04-26 10:00 40.80127 4.75342 36169 ft 452 kts 230°
2026-04-26 10:01 40.76070 4.69009 36169 ft 453 kts 230°
2026-04-26 10:01 40.72002 4.62676 36169 ft 452 kts 230°
2026-04-26 10:02 40.67961 4.56395 36172 ft 452 kts 230°
2026-04-26 10:02 40.63888 4.50079 36170 ft 452 kts 229°
2026-04-26 10:03 40.59814 4.43773 36168 ft 452 kts 229°
2026-04-26 10:03 40.55734 4.37472 36172 ft 452 kts 229°
2026-04-26 10:04 40.51653 4.31183 36172 ft 452 kts 229°
2026-04-26 10:04 40.48256 4.25958 36168 ft 451 kts 229°
2026-04-26 10:05 40.44268 4.19834 36171 ft 435 kts 229°
2026-04-26 10:05 40.40341 4.13816 36172 ft 434 kts 229°
2026-04-26 10:06 40.36407 4.07798 36168 ft 435 kts 229°
2026-04-26 10:06 40.32465 4.01782 36171 ft 435 kts 229°
2026-04-26 10:07 40.28523 3.95775 36171 ft 435 kts 229°
2026-04-26 10:07 40.24572 3.89769 36169 ft 435 kts 229°
2026-04-26 10:08 40.20622 3.83773 36171 ft 435 kts 229°
2026-04-26 10:08 40.16666 3.77780 36167 ft 436 kts 229°
2026-04-26 10:09 40.12694 3.71769 36167 ft 437 kts 228°
2026-04-26 10:09 40.08710 3.65767 36170 ft 437 kts 228°
2026-04-26 10:10 40.04729 3.59773 36171 ft 437 kts 228°
2026-04-26 10:10 40.00743 3.53783 36170 ft 437 kts 228°
2026-04-26 10:11 39.96756 3.47803 36171 ft 437 kts 228°
2026-04-26 10:11 39.92792 3.41868 36170 ft 437 kts 228°
2026-04-26 10:12 39.88770 3.35860 36171 ft 437 kts 228°
2026-04-26 10:12 39.84775 3.29901 36171 ft 437 kts 228°
2026-04-26 10:13 39.80776 3.23950 36170 ft 437 kts 228°
2026-04-26 10:13 39.76802 3.18046 36171 ft 437 kts 228°
2026-04-26 10:14 39.72797 3.12108 36170 ft 437 kts 228°
2026-04-26 10:14 39.68790 3.06179 36171 ft 437 kts 228°
2026-04-26 10:15 39.66791 3.03225 35731 ft 435 kts 227°
2026-04-26 10:15 39.64789 3.00262 34954 ft 438 kts 227°
2026-04-26 10:15 39.62772 2.97294 34324 ft 438 kts 227°
2026-04-26 10:15 39.60761 2.94327 33631 ft 438 kts 227°
2026-04-26 10:16 39.58743 2.91358 32853 ft 440 kts 227°
2026-04-26 10:16 39.56715 2.88376 32063 ft 442 kts 227°
2026-04-26 10:16 39.54678 2.85384 31322 ft 443 kts 227°
2026-04-26 10:16 39.52635 2.82386 30588 ft 445 kts 227°
2026-04-26 10:17 39.50581 2.79373 29718 ft 448 kts 227°
2026-04-26 10:17 39.48524 2.76357 29018 ft 446 kts 228°
2026-04-26 10:17 39.46482 2.73370 28479 ft 440 kts 227°
2026-04-26 10:17 39.44459 2.70413 27888 ft 437 kts 227°
2026-04-26 10:18 39.42460 2.67494 27439 ft 431 kts 227°
2026-04-26 10:18 39.40448 2.64558 26996 ft 443 kts 227°
2026-04-26 10:18 39.38373 2.61532 26675 ft 456 kts 227°
2026-04-26 10:18 39.36248 2.58436 26370 ft 463 kts 227°
2026-04-26 10:19 39.34105 2.55318 25804 ft 463 kts 227°
2026-04-26 10:19 39.31977 2.52225 25120 ft 459 kts 227°
2026-04-26 10:19 39.29863 2.49152 24452 ft 456 kts 227°
2026-04-26 10:19 39.27757 2.46098 23799 ft 454 kts 227°
2026-04-26 10:20 39.25661 2.43058 23018 ft 452 kts 227°
2026-04-26 10:20 39.24278 2.41057 22573 ft 450 kts 227°
2026-04-26 10:20 39.21510 2.37054 21701 ft 445 kts 227°
2026-04-26 10:20 39.19460 2.34091 21061 ft 441 kts 227°
2026-04-26 10:21 39.17423 2.31150 20445 ft 439 kts 226°
2026-04-26 10:21 39.15396 2.28227 19799 ft 436 kts 226°
2026-04-26 10:21 39.13377 2.25316 19162 ft 435 kts 226°
2026-04-26 10:21 39.11365 2.22419 18529 ft 433 kts 226°
2026-04-26 10:22 39.09358 2.19531 17846 ft 432 kts 226°
2026-04-26 10:22 39.07411 2.16601 16949 ft 434 kts 232°
2026-04-26 10:22 39.05967 2.13153 16103 ft 436 kts 246°
2026-04-26 10:22 39.04728 2.09661 15201 ft 425 kts 244°
2026-04-26 10:23 39.03467 2.06260 14278 ft 418 kts 244°
2026-04-26 10:23 39.02210 2.02914 13843 ft 411 kts 243°
2026-04-26 10:23 39.00973 1.99646 13491 ft 403 kts 243°
2026-04-26 10:23 38.99750 1.96428 12962 ft 399 kts 243°
2026-04-26 10:24 38.98530 1.93230 12396 ft 398 kts 243°
2026-04-26 10:24 38.97317 1.90051 11962 ft 393 kts 243°
2026-04-26 10:24 38.96147 1.86984 11777 ft 382 kts 243°
2026-04-26 10:24 38.94995 1.83970 11601 ft 371 kts 243°
2026-04-26 10:25 38.93865 1.81016 11187 ft 367 kts 243°
2026-04-26 10:25 38.92742 1.78084 10801 ft 364 kts 243°
2026-04-26 10:25 38.91628 1.75181 10435 ft 361 kts 243°
2026-04-26 10:25 38.90525 1.72306 10061 ft 357 kts 243°
2026-04-26 10:26 38.89443 1.69490 9643 ft 345 kts 243°
2026-04-26 10:26 38.88403 1.66784 9247 ft 332 kts 243°
2026-04-26 10:26 38.87401 1.64177 8863 ft 320 kts 243°
2026-04-26 10:26 38.86430 1.61657 8471 ft 310 kts 243°
2026-04-26 10:27 38.85490 1.59219 8087 ft 300 kts 243°
2026-04-26 10:27 38.84576 1.56851 7701 ft 293 kts 242°
2026-04-26 10:27 38.83676 1.54522 7331 ft 291 kts 242°
2026-04-26 10:27 38.82776 1.52195 6971 ft 292 kts 242°
2026-04-26 10:28 38.81875 1.49863 6638 ft 291 kts 242°
2026-04-26 10:28 38.80974 1.47538 6305 ft 290 kts 242°
2026-04-26 10:28 38.80077 1.45225 5963 ft 289 kts 242°
2026-04-26 10:28 38.79183 1.42920 5637 ft 289 kts 242°
2026-04-26 10:29 38.78298 1.40630 5284 ft 283 kts 242°
2026-04-26 10:29 38.77436 1.38412 4922 ft 274 kts 242°
2026-04-26 10:29 38.76593 1.36246 4528 ft 269 kts 242°
2026-04-26 10:29 38.75768 1.34125 4136 ft 263 kts 242°
2026-04-26 10:30 38.74958 1.32046 3764 ft 260 kts 242°
2026-04-26 10:30 38.74155 1.29981 3509 ft 257 kts 242°
2026-04-26 10:30 38.73361 1.27943 3232 ft 255 kts 242°
2026-04-26 10:30 38.72577 1.25932 3045 ft 248 kts 242°
2026-04-26 10:31 38.71833 1.24013 3037 ft 233 kts 245°
2026-04-26 10:31 38.71583 1.22048 2962 ft 221 kts 279°
2026-04-26 10:31 38.72194 1.20309 2896 ft 210 kts 315°
2026-04-26 10:31 38.73303 1.19212 2771 ft 198 kts 330°
2026-04-26 10:32 38.74467 1.18299 2635 ft 195 kts 331°
2026-04-26 10:32 38.75621 1.17405 2616 ft 195 kts 331°
2026-04-26 10:32 38.76841 1.16706 2475 ft 189 kts 359°
2026-04-26 10:32 38.78036 1.17101 2519 ft 178 kts 38°
2026-04-26 10:33 38.78976 1.18144 2611 ft 179 kts 50°
2026-04-26 10:33 38.79740 1.19400 2547 ft 178 kts 58°
2026-04-26 10:33 38.80326 1.20783 2694 ft 176 kts 69°
2026-04-26 10:33 38.80841 1.22205 2802 ft 180 kts 67°
2026-04-26 10:34 38.81363 1.23658 2691 ft 179 kts 64°
2026-04-26 10:34 38.81959 1.25026 2420 ft 170 kts 60°
2026-04-26 10:34 38.82566 1.26232 2256 ft 157 kts 60°
2026-04-26 10:34 38.83082 1.27434 1955 ft 148 kts 62°
2026-04-26 10:35 38.83560 1.28582 1487 ft 146 kts 64°
2026-04-26 10:35 38.84025 1.29735 1040 ft 144 kts 64°
2026-04-26 10:35 38.84506 1.30808 792 ft 136 kts 61°
2026-04-26 10:35 38.84973 1.31854 744 ft 135 kts 65°
2026-04-26 10:36 38.85435 1.32889 630 ft 131 kts 63°
2026-04-26 10:36 38.85891 1.33942 458 ft 134 kts 64°
2026-04-26 10:36 38.86332 1.34987 230 ft 136 kts 64°
2026-04-26 10:36 38.86773 1.36064 37 ft 134 kts 64°
2026-04-26 10:37 38.87144 1.36974 15 ft 83 kts 62°
2026-04-26 10:37 38.87319 1.37373 12 ft 34 kts 50°
2026-04-26 10:37 38.87412 1.37461 12 ft 5 kts 31°
2026-04-26 10:37 38.87448 1.37492 13 ft 8 kts 34°
2026-04-26 10:38 38.87504 1.37538 13 ft 11 kts 31°
2026-04-26 10:38 38.87543 1.37509 11 ft 6 kts 265°
2026-04-26 10:38 38.87524 1.37447 11 ft 9 kts 243°
2026-04-26 10:38 38.87474 1.37323 11 ft 26 kts 242°
2026-04-26 10:39 38.87373 1.37084 11 ft 33 kts 243°
2026-04-26 10:39 38.87301 1.36886 11 ft 13 kts 279°
2026-04-26 10:39 38.87397 1.36803 12 ft 22 kts 356°
2026-04-26 10:39 38.87501 1.36950 11 ft 24 kts 61°
2026-04-26 10:40 38.87561 1.37078 11 ft 8 kts 24°
2026-04-26 10:40 38.87608 1.37067 12 ft 5 kts 332°
2026-04-26 10:40 38.87621 1.37058 11 ft 0 kts 333°